COSMOS 2251 DEB, 34857

Orbit data source: Space-Track

COSMOS 2251 DEB, 34857 is space debris in LEO originally from a launch on Wed, 16 Jun 1993 UTC launched from the Plesetsk Missile And Space Complex (PKMTR). The debris from Iridium 33, an American commercial communications satellite, has been tracked extensively since its accidental collision with the defunct Russian satellite Cosmos 2251 in 2009. This event, occurring at high speed in low Earth orbit (LEO), generated thousands of pieces of space debris, significantly increasing the risk of further collisions. The Iridium 33 debris cloud has impacted space traffic management and orbital debris mitigation strategies, making it a subject of ongoing study in space situational awareness.

Loading next visibility...
Identifier
34857, 1993-036ACB
Orbit
LEO
Country
Flag of CISCIS
Related business
Manufacturer
Unknown
Mission
Spacecraft
Bus & Motor
Unknown
Mass
Unknown
Launch date (UTC)
1993-06-16 (33 years ago)
Launch vehicle
Unknown
Launch site
Plesetsk Missile And Space Complex (PKMTR)
Object type
Payload
Rocket body
Debris
Shape & HBR
Unknown shape, 0.1 m
Radar Cross Section
Small (<0.1 m²)

Expand to show TLE details & history
Last TLE update: 9 hours ago

TLE from 9 hours ago
0 COSMOS 2251 DEB
1 34857U 93036ACB 26120.27824627  .00002730  00000-0  55742-3 0  9995
2 34857  74.0153 202.2959 0065784 291.6586 124.7930 14.60064945899220
Epoch: 2026-04-30T06:40Z
TLE epoch observation values (Epoch: 2026-04-30T06:40:40.477Z)
Latitude
53.89982°
Longitude
-93.10032°
Altitude
728.226 km
Speed
7.482 km/s
True Right ascension
15h 01m 10s
True Declination
53° 44' 07"
Sunlit
Object was in daylight at epoch
Visualization orbit readout
Latitude
Unknown
Longitude
Unknown
Altitude
Unknown
Speed
Unknown
Apparent Right ascension
Unknown
Apparent Declination
Unknown
Sunlit
N/A
Visualization observer readout
Local Sidereal Time
23:20:07
Azimuth
Unknown
Elevation
Unknown
Doppler factor
Unknown
Orbital elements
Apogee altitude
737.064 km
Perigee altitude
644.063 km
Semi-major axis
7,068.7 km
Eccentricity
0.00658
Inclination
74.0153°
RAAN
202.2959°
Arg. of periapsis
291.6586°
True anomaly
125.40916°
Mean anomaly
124.793°
Eccentric anomaly
125.10137°
Mean motion
3.65203 °/min
Orbital period
98.58 mins
BSTAR
0.00055742
Loading maneuver chart data...
Computing Atmospheric mass density...

Documentation

Showing up to 5 results
|